SUD1A KEYW-MHTG

Flight info

Callsign SUD1A
Flight time 2h 1m
Altitude 36000
Route MAXIM UG765 CZM UB881 ANIKO/N0460F350 UB881 BTO/N0460F360
Aircraft A320/M-SDFGHILORVWY/S

Departure

Time 2026-05-05 10:04
Airport Key West International Airport (KEYW)

Arrival

Time 2026-05-05 12:05
Airport Toncontín Airport (MHTG)
Time Latitude Longitude Altitude Speed Heading
2026-05-05 09:54 24.55471 -81.75693 20 ft 0 kts 355°
2026-05-05 09:58 24.55475 -81.75694 20 ft 4 kts 344°
2026-05-05 09:58 24.55495 -81.75750 20 ft 9 kts 275°
2026-05-05 09:58 24.55522 -81.75797 20 ft 7 kts 302°
2026-05-05 09:59 24.55529 -81.75875 18 ft 16 kts 272°
2026-05-05 09:59 24.55526 -81.76041 14 ft 25 kts 269°
2026-05-05 09:59 24.55524 -81.76227 13 ft 24 kts 269°
2026-05-05 09:59 24.55522 -81.76419 12 ft 26 kts 270°
2026-05-05 10:00 24.55522 -81.76615 13 ft 22 kts 279°
2026-05-05 10:00 24.55607 -81.76661 14 ft 6 kts 54°
2026-05-05 10:00 24.55606 -81.76650 14 ft 0 kts 91°
2026-05-05 10:03 24.55606 -81.76602 14 ft 34 kts 89°
2026-05-05 10:03 24.55613 -81.76025 16 ft 113 kts 89°
2026-05-05 10:03 24.55634 -81.74921 49 ft 170 kts 88°
2026-05-05 10:04 24.55645 -81.73571 649 ft 177 kts 89°
2026-05-05 10:04 24.55656 -81.72237 1550 ft 172 kts 89°
2026-05-05 10:04 24.55409 -81.70957 2119 ft 179 kts 126°
2026-05-05 10:04 24.54336 -81.70194 2311 ft 198 kts 171°
2026-05-05 10:05 24.52942 -81.70459 2484 ft 217 kts 214°
2026-05-05 10:05 24.51843 -81.71699 2739 ft 239 kts 233°
2026-05-05 10:05 24.50822 -81.73248 3180 ft 258 kts 236°
2026-05-05 10:05 24.49799 -81.74891 3949 ft 262 kts 237°
2026-05-05 10:06 24.48776 -81.76547 4838 ft 262 kts 237°
2026-05-05 10:06 24.47744 -81.78202 5700 ft 263 kts 237°
2026-05-05 10:06 24.46701 -81.79856 6532 ft 264 kts 237°
2026-05-05 10:06 24.45647 -81.81511 7316 ft 265 kts 237°
2026-05-05 10:07 24.44585 -81.83172 8100 ft 267 kts 236°
2026-05-05 10:07 24.43514 -81.84838 8871 ft 268 kts 236°
2026-05-05 10:07 24.42435 -81.86511 9648 ft 269 kts 236°
2026-05-05 10:07 24.41344 -81.88198 10273 ft 276 kts 236°
2026-05-05 10:08 24.40187 -81.89987 10428 ft 299 kts 236°
2026-05-05 10:08 24.38940 -81.91920 10553 ft 321 kts 236°
2026-05-05 10:08 24.37618 -81.93970 10881 ft 334 kts 236°
2026-05-05 10:08 24.36262 -81.96068 11426 ft 340 kts 237°
2026-05-05 10:09 24.34889 -81.98193 12002 ft 344 kts 237°
2026-05-05 10:09 24.33499 -82.00345 12576 ft 348 kts 237°
2026-05-05 10:09 24.32089 -82.02525 13146 ft 352 kts 237°
2026-05-05 10:09 24.30665 -82.04730 13694 ft 357 kts 238°
2026-05-05 10:10 24.29221 -82.06962 14204 ft 360 kts 238°
2026-05-05 10:10 24.27767 -82.09207 14711 ft 363 kts 238°
2026-05-05 10:10 24.26297 -82.11475 15225 ft 366 kts 238°
2026-05-05 10:10 24.24819 -82.13757 15737 ft 368 kts 238°
2026-05-05 10:11 24.23330 -82.16054 16241 ft 371 kts 238°
2026-05-05 10:11 24.21833 -82.18366 16743 ft 374 kts 239°
2026-05-05 10:11 24.20320 -82.20698 17249 ft 376 kts 239°
2026-05-05 10:11 24.18796 -82.23040 17732 ft 379 kts 239°
2026-05-05 10:12 24.17260 -82.25401 18219 ft 382 kts 239°
2026-05-05 10:12 24.15711 -82.27779 18645 ft 385 kts 239°
2026-05-05 10:12 24.14152 -82.30175 19061 ft 387 kts 239°
2026-05-05 10:12 24.12584 -82.32583 19487 ft 390 kts 239°
2026-05-05 10:13 24.11004 -82.35006 19908 ft 392 kts 239°
2026-05-05 10:13 24.09413 -82.37444 20326 ft 395 kts 239°
2026-05-05 10:13 24.07813 -82.39901 20735 ft 397 kts 239°
2026-05-05 10:13 24.06204 -82.42374 21104 ft 401 kts 239°
2026-05-05 10:14 24.04582 -82.44865 21489 ft 403 kts 239°
2026-05-05 10:14 24.02969 -82.47336 21870 ft 406 kts 239°
2026-05-05 10:14 24.01327 -82.49853 22244 ft 408 kts 239°
2026-05-05 10:14 23.99661 -82.52378 22613 ft 411 kts 238°
2026-05-05 10:15 23.97897 -82.54854 22980 ft 415 kts 236°
2026-05-05 10:15 23.96047 -82.57285 23335 ft 418 kts 234°
2026-05-05 10:15 23.94146 -82.59699 23662 ft 420 kts 233°
2026-05-05 10:15 23.92225 -82.62115 23937 ft 422 kts 234°
2026-05-05 10:16 23.90301 -82.64551 24211 ft 424 kts 234°
2026-05-05 10:16 23.88380 -82.67011 24454 ft 426 kts 234°
2026-05-05 10:16 23.86462 -82.69492 24719 ft 428 kts 235°
2026-05-05 10:16 23.84542 -82.71995 24976 ft 431 kts 235°
2026-05-05 10:17 23.82620 -82.74508 25229 ft 433 kts 235°
2026-05-05 10:17 23.80682 -82.77036 25487 ft 435 kts 235°
2026-05-05 10:17 23.78734 -82.79573 25729 ft 437 kts 235°
2026-05-05 10:17 23.76771 -82.82121 25970 ft 440 kts 235°
2026-05-05 10:18 23.74797 -82.84681 26217 ft 442 kts 235°
2026-05-05 10:18 23.72812 -82.87252 26464 ft 444 kts 235°
2026-05-05 10:18 23.70817 -82.89833 26706 ft 446 kts 235°
2026-05-05 10:18 23.68812 -82.92427 26943 ft 448 kts 235°
2026-05-05 10:19 23.66797 -82.95032 27180 ft 450 kts 235°
2026-05-05 10:19 23.64776 -82.97642 27398 ft 452 kts 235°
2026-05-05 10:19 23.62743 -83.00269 27630 ft 454 kts 236°
2026-05-05 10:19 23.60707 -83.02903 27867 ft 456 kts 236°
2026-05-05 10:20 23.58660 -83.05551 28043 ft 458 kts 235°
2026-05-05 10:20 23.56603 -83.08214 28233 ft 460 kts 235°
2026-05-05 10:20 23.54542 -83.10884 28429 ft 462 kts 235°
2026-05-05 10:20 23.52466 -83.13566 28634 ft 464 kts 235°
2026-05-05 10:21 23.50379 -83.16252 28811 ft 465 kts 235°
2026-05-05 10:21 23.48991 -83.18035 28923 ft 467 kts 235°
2026-05-05 10:21 23.46883 -83.20740 29092 ft 469 kts 235°
2026-05-05 10:21 23.44770 -83.23452 29271 ft 470 kts 235°
2026-05-05 10:22 23.42653 -83.26168 29507 ft 470 kts 235°
2026-05-05 10:22 23.40541 -83.28879 29779 ft 470 kts 235°
2026-05-05 10:22 23.38430 -83.31590 30033 ft 469 kts 235°
2026-05-05 10:22 23.36318 -83.34300 30258 ft 469 kts 236°
2026-05-05 10:23 23.34208 -83.37005 30493 ft 469 kts 236°
2026-05-05 10:23 23.32099 -83.39707 30729 ft 468 kts 236°
2026-05-05 10:23 23.29998 -83.42403 30965 ft 467 kts 236°
2026-05-05 10:23 23.27899 -83.45096 31182 ft 466 kts 236°
2026-05-05 10:24 23.25801 -83.47784 31417 ft 466 kts 236°
2026-05-05 10:24 23.23702 -83.50469 31656 ft 465 kts 236°
2026-05-05 10:24 23.21610 -83.53147 31900 ft 465 kts 236°
2026-05-05 10:24 23.19520 -83.55821 32127 ft 464 kts 235°
2026-05-05 10:25 23.17426 -83.58494 32359 ft 464 kts 235°
2026-05-05 10:25 23.15333 -83.61159 32602 ft 463 kts 235°
2026-05-05 10:25 23.13241 -83.63822 32846 ft 463 kts 235°
2026-05-05 10:25 23.11153 -83.66483 33089 ft 462 kts 236°
2026-05-05 10:26 23.09073 -83.69133 33335 ft 461 kts 236°
2026-05-05 10:26 23.06990 -83.71787 33578 ft 461 kts 236°
2026-05-05 10:26 23.04913 -83.74431 33823 ft 460 kts 236°
2026-05-05 10:26 23.02840 -83.77071 34052 ft 459 kts 236°
2026-05-05 10:27 23.00770 -83.79707 34269 ft 458 kts 236°
2026-05-05 10:27 22.98704 -83.82337 34488 ft 457 kts 236°
2026-05-05 10:27 22.96641 -83.84960 34668 ft 457 kts 235°
2026-05-05 10:27 22.94575 -83.87582 34854 ft 457 kts 235°
2026-05-05 10:28 22.92511 -83.90200 35056 ft 456 kts 236°
2026-05-05 10:28 22.90452 -83.92816 35229 ft 456 kts 236°
2026-05-05 10:28 22.88392 -83.95432 35402 ft 456 kts 236°
2026-05-05 10:28 22.86333 -83.98041 35572 ft 455 kts 236°
2026-05-05 10:29 22.84276 -84.00644 35756 ft 454 kts 236°
2026-05-05 10:29 22.82220 -84.03241 35933 ft 454 kts 236°
2026-05-05 10:29 22.78110 -84.08438 35988 ft 454 kts 236°
2026-05-05 10:30 22.73996 -84.13635 35989 ft 454 kts 236°
2026-05-05 10:30 22.69922 -84.18854 35989 ft 454 kts 236°
2026-05-05 10:31 22.65883 -84.24107 35986 ft 454 kts 237°
2026-05-05 10:31 22.61835 -84.29359 35980 ft 455 kts 236°
2026-05-05 10:32 22.57771 -84.34613 35981 ft 455 kts 236°
2026-05-05 10:32 22.53705 -84.39865 35983 ft 456 kts 236°
2026-05-05 10:33 22.49627 -84.45120 35986 ft 456 kts 236°
2026-05-05 10:33 22.45543 -84.50370 36007 ft 456 kts 236°
2026-05-05 10:34 22.41468 -84.55622 35997 ft 456 kts 236°
2026-05-05 10:34 22.37382 -84.60876 35999 ft 456 kts 236°
2026-05-05 10:35 22.33299 -84.66125 35997 ft 456 kts 236°
2026-05-05 10:35 22.29211 -84.71368 35986 ft 457 kts 236°
2026-05-05 10:36 22.25118 -84.76613 35987 ft 457 kts 236°
2026-05-05 10:36 22.21021 -84.81857 35993 ft 457 kts 236°
2026-05-05 10:37 22.16920 -84.87096 35987 ft 457 kts 236°
2026-05-05 10:37 22.12819 -84.92338 35989 ft 457 kts 236°
2026-05-05 10:38 22.08723 -84.97578 35989 ft 457 kts 236°
2026-05-05 10:38 22.04613 -85.02815 35974 ft 457 kts 236°
2026-05-05 10:39 22.00500 -85.08044 35972 ft 458 kts 236°
2026-05-05 10:39 21.96423 -85.13252 35971 ft 458 kts 236°
2026-05-05 10:40 21.92346 -85.18515 35978 ft 458 kts 236°
2026-05-05 10:40 21.88271 -85.23788 35981 ft 458 kts 236°
2026-05-05 10:41 21.84186 -85.29052 35984 ft 458 kts 236°
2026-05-05 10:41 21.80095 -85.34312 35986 ft 458 kts 236°
2026-05-05 10:42 21.73959 -85.42194 35987 ft 458 kts 236°
2026-05-05 10:43 21.69870 -85.47455 35966 ft 458 kts 235°
2026-05-05 10:43 21.65775 -85.52706 35973 ft 458 kts 235°
2026-05-05 10:44 21.61675 -85.57957 35977 ft 458 kts 235°
2026-05-05 10:44 21.57576 -85.63200 35981 ft 458 kts 235°
2026-05-05 10:45 21.53471 -85.68447 35983 ft 458 kts 235°
2026-05-05 10:45 21.49371 -85.73685 35982 ft 458 kts 235°
2026-05-05 10:46 21.45181 -85.78860 35982 ft 460 kts 233°
2026-05-05 10:46 21.40920 -85.83922 35983 ft 460 kts 233°
2026-05-05 10:47 21.36629 -85.89016 35982 ft 460 kts 233°
2026-05-05 10:47 21.32357 -85.94125 35982 ft 460 kts 233°
2026-05-05 10:48 21.28097 -85.99239 35986 ft 460 kts 233°
2026-05-05 10:48 21.23839 -86.04358 35985 ft 460 kts 233°
2026-05-05 10:49 21.19582 -86.09467 35981 ft 460 kts 233°
2026-05-05 10:49 21.15310 -86.14567 35978 ft 460 kts 233°
2026-05-05 10:50 21.11035 -86.19667 35980 ft 460 kts 233°
2026-05-05 10:50 21.06769 -86.24769 35969 ft 460 kts 233°
2026-05-05 10:51 21.02498 -86.29870 35976 ft 460 kts 233°
2026-05-05 10:51 20.98217 -86.34969 35981 ft 460 kts 233°
2026-05-05 10:52 20.93936 -86.40064 35976 ft 460 kts 233°
2026-05-05 10:52 20.89656 -86.45157 35982 ft 460 kts 233°
2026-05-05 10:53 20.85377 -86.50252 35991 ft 460 kts 233°
2026-05-05 10:53 20.81089 -86.55340 35986 ft 461 kts 233°
2026-05-05 10:54 20.76795 -86.60417 35969 ft 461 kts 232°
2026-05-05 10:54 20.72499 -86.65499 35983 ft 461 kts 232°
2026-05-05 10:55 20.68205 -86.70583 35981 ft 461 kts 232°
2026-05-05 10:55 20.63912 -86.75661 35985 ft 461 kts 232°
2026-05-05 10:56 20.59641 -86.80705 35989 ft 461 kts 232°
2026-05-05 10:56 20.55313 -86.85759 35980 ft 463 kts 227°
2026-05-05 10:57 20.49928 -86.89602 35979 ft 474 kts 206°
2026-05-05 10:57 20.46773 -86.90685 35977 ft 479 kts 194°
2026-05-05 10:57 20.43455 -86.91120 35965 ft 483 kts 182°
2026-05-05 10:58 20.36725 -86.91046 35972 ft 484 kts 181°
2026-05-05 10:58 20.29996 -86.90977 35969 ft 483 kts 182°
2026-05-05 10:59 20.23271 -86.90914 35977 ft 483 kts 182°
2026-05-05 10:59 20.16543 -86.90848 35977 ft 483 kts 182°
2026-05-05 11:00 20.09813 -86.90783 35967 ft 483 kts 181°
2026-05-05 11:00 20.03101 -86.90748 35979 ft 482 kts 182°
2026-05-05 11:01 19.96398 -86.90786 35983 ft 481 kts 182°
2026-05-05 11:01 19.89707 -86.90826 35982 ft 481 kts 182°
2026-05-05 11:02 19.83021 -86.90841 35977 ft 480 kts 182°
2026-05-05 11:02 19.76343 -86.90855 35972 ft 480 kts 182°
2026-05-05 11:03 19.69671 -86.90869 35986 ft 479 kts 182°
2026-05-05 11:03 19.63015 -86.90879 35982 ft 478 kts 182°
2026-05-05 11:04 19.56361 -86.90852 35975 ft 478 kts 182°
2026-05-05 11:04 19.49713 -86.90815 35975 ft 478 kts 182°
2026-05-05 11:05 19.43070 -86.90782 35971 ft 477 kts 182°
2026-05-05 11:05 19.36430 -86.90760 35975 ft 477 kts 182°
2026-05-05 11:06 19.29800 -86.90744 35976 ft 476 kts 182°
2026-05-05 11:06 19.23174 -86.90720 35976 ft 476 kts 182°
2026-05-05 11:07 19.17669 -86.90693 35974 ft 476 kts 182°
2026-05-05 11:07 19.11047 -86.90666 35974 ft 476 kts 182°
2026-05-05 11:08 19.04426 -86.90638 35970 ft 476 kts 182°
2026-05-05 11:08 18.97804 -86.90574 35971 ft 476 kts 181°
2026-05-05 11:09 18.91187 -86.90474 35968 ft 476 kts 181°
2026-05-05 11:09 18.84567 -86.90382 35968 ft 476 kts 181°
2026-05-05 11:10 18.77946 -86.90297 35964 ft 476 kts 181°
2026-05-05 11:10 18.71326 -86.90215 35960 ft 476 kts 181°
2026-05-05 11:11 18.64711 -86.90124 35963 ft 476 kts 181°
2026-05-05 11:11 18.58090 -86.90031 35965 ft 476 kts 181°
2026-05-05 11:12 18.51475 -86.89950 35964 ft 476 kts 181°
2026-05-05 11:12 18.44855 -86.89869 35965 ft 476 kts 181°
2026-05-05 11:13 18.38282 -86.89781 35961 ft 475 kts 181°
2026-05-05 11:13 18.31671 -86.89689 35966 ft 475 kts 181°
2026-05-05 11:14 18.25062 -86.89603 35970 ft 475 kts 181°
2026-05-05 11:14 18.18462 -86.89515 35969 ft 474 kts 181°
2026-05-05 11:15 18.11858 -86.89428 35964 ft 474 kts 181°
2026-05-05 11:15 18.05259 -86.89343 35964 ft 474 kts 181°
2026-05-05 11:16 17.98658 -86.89255 35967 ft 474 kts 181°
2026-05-05 11:16 17.92060 -86.89169 35967 ft 474 kts 181°
2026-05-05 11:17 17.85461 -86.89069 35961 ft 474 kts 181°
2026-05-05 11:17 17.78862 -86.88967 35961 ft 474 kts 181°
2026-05-05 11:18 17.72264 -86.88859 35963 ft 474 kts 181°
2026-05-05 11:18 17.65672 -86.88752 35963 ft 474 kts 181°
2026-05-05 11:19 17.59083 -86.88643 35966 ft 473 kts 181°
2026-05-05 11:19 17.52499 -86.88542 35964 ft 473 kts 181°
2026-05-05 11:20 17.45920 -86.88433 35964 ft 473 kts 181°
2026-05-05 11:20 17.39342 -86.88329 35963 ft 473 kts 181°
2026-05-05 11:21 17.32766 -86.88231 35959 ft 472 kts 181°
2026-05-05 11:21 17.26194 -86.88133 35955 ft 472 kts 181°
2026-05-05 11:22 17.19620 -86.88030 35955 ft 472 kts 181°
2026-05-05 11:22 17.13050 -86.87925 35954 ft 472 kts 181°
2026-05-05 11:23 17.06477 -86.87824 35956 ft 472 kts 181°
2026-05-05 11:23 16.99908 -86.87731 35949 ft 472 kts 181°
2026-05-05 11:24 16.93379 -86.87620 35950 ft 472 kts 181°
2026-05-05 11:24 16.86804 -86.87507 35949 ft 473 kts 181°
2026-05-05 11:25 16.80225 -86.87406 35949 ft 473 kts 181°
2026-05-05 11:25 16.73647 -86.87307 35951 ft 473 kts 181°
2026-05-05 11:26 16.67069 -86.87207 35949 ft 473 kts 181°
2026-05-05 11:26 16.60490 -86.87113 35946 ft 473 kts 181°
2026-05-05 11:27 16.53913 -86.87007 35952 ft 473 kts 181°
2026-05-05 11:27 16.47330 -86.86901 35953 ft 473 kts 181°
2026-05-05 11:28 16.40752 -86.86795 35949 ft 473 kts 181°
2026-05-05 11:28 16.34171 -86.86687 35950 ft 473 kts 181°
2026-05-05 11:29 16.27587 -86.86590 35938 ft 473 kts 181°
2026-05-05 11:29 16.21009 -86.86496 35944 ft 473 kts 181°
2026-05-05 11:30 16.14425 -86.86401 35947 ft 473 kts 181°
2026-05-05 11:30 16.07839 -86.86322 35947 ft 473 kts 182°
2026-05-05 11:31 16.01258 -86.86329 35948 ft 473 kts 182°
2026-05-05 11:31 15.94677 -86.86368 35942 ft 473 kts 182°
2026-05-05 11:32 15.88099 -86.86393 35937 ft 473 kts 182°
2026-05-05 11:32 15.81521 -86.86408 35937 ft 473 kts 182°
2026-05-05 11:33 15.74944 -86.86439 35934 ft 472 kts 185°
2026-05-05 11:33 15.68510 -86.87532 35937 ft 468 kts 194°
2026-05-05 11:34 15.62128 -86.88913 35940 ft 468 kts 194°
2026-05-05 11:34 15.55748 -86.90286 35955 ft 468 kts 194°
2026-05-05 11:35 15.49370 -86.91665 35973 ft 468 kts 194°
2026-05-05 11:35 15.42994 -86.93041 36035 ft 468 kts 194°
2026-05-05 11:36 15.36623 -86.94405 36036 ft 467 kts 194°
2026-05-05 11:36 15.30261 -86.95778 36050 ft 467 kts 194°
2026-05-05 11:37 15.23903 -86.97140 36048 ft 466 kts 194°
2026-05-05 11:37 15.17556 -86.98503 36078 ft 466 kts 194°
2026-05-05 11:38 15.11219 -86.99868 36072 ft 465 kts 194°
2026-05-05 11:38 15.04884 -87.01236 36099 ft 465 kts 194°
2026-05-05 11:39 14.98592 -87.02587 36098 ft 465 kts 194°
2026-05-05 11:39 14.92215 -87.03951 36091 ft 465 kts 194°
2026-05-05 11:40 14.85885 -87.05307 36105 ft 465 kts 194°
2026-05-05 11:40 14.79590 -87.06653 36105 ft 465 kts 194°
2026-05-05 11:41 14.73253 -87.08012 36104 ft 465 kts 194°
2026-05-05 11:41 14.66916 -87.09371 36104 ft 465 kts 194°
2026-05-05 11:42 14.60572 -87.10725 36106 ft 465 kts 193°
2026-05-05 11:42 14.54230 -87.12083 36102 ft 465 kts 194°
2026-05-05 11:43 14.47890 -87.13446 36123 ft 465 kts 193°
2026-05-05 11:43 14.41545 -87.14777 36126 ft 466 kts 193°
2026-05-05 11:44 14.35155 -87.15923 36123 ft 466 kts 191°
2026-05-05 11:44 14.28822 -87.17256 36141 ft 461 kts 207°
2026-05-05 11:44 14.26172 -87.19022 36139 ft 452 kts 227°
2026-05-05 11:45 14.24247 -87.21542 36135 ft 447 kts 241°
2026-05-05 11:45 14.21647 -87.27238 36109 ft 427 kts 243°
2026-05-05 11:45 14.19999 -87.29720 36125 ft 416 kts 230°
2026-05-05 11:46 14.17930 -87.31788 36130 ft 414 kts 224°
2026-05-05 11:46 14.15564 -87.33459 36132 ft 416 kts 203°
2026-05-05 11:46 14.12743 -87.34105 36131 ft 420 kts 180°
2026-05-05 11:46 14.09859 -87.33631 36133 ft 424 kts 159°
2026-05-05 11:47 14.07324 -87.32100 36133 ft 426 kts 136°
2026-05-05 11:47 14.05455 -87.29736 36139 ft 428 kts 120°
2026-05-05 11:47 14.04101 -87.26996 36136 ft 430 kts 110°
2026-05-05 11:47 14.03487 -87.24016 36136 ft 426 kts 87°
2026-05-05 11:48 14.05490 -87.18457 35552 ft 424 kts 44°
2026-05-05 11:48 14.07811 -87.16670 35043 ft 412 kts 19°
2026-05-05 11:48 14.10523 -87.16033 34868 ft 394 kts 357°
2026-05-05 11:49 14.13169 -87.16510 34530 ft 384 kts 339°
2026-05-05 11:49 14.15683 -87.17436 34103 ft 383 kts 339°
2026-05-05 11:49 14.18181 -87.18350 33685 ft 380 kts 342°
2026-05-05 11:49 14.20772 -87.18830 32841 ft 383 kts 360°
2026-05-05 11:50 14.23414 -87.18424 31865 ft 387 kts 16°
2026-05-05 11:50 14.25993 -87.17598 30935 ft 390 kts 16°
2026-05-05 11:50 14.28602 -87.16823 29977 ft 390 kts
2026-05-05 11:50 14.31262 -87.16852 28766 ft 390 kts 349°
2026-05-05 11:51 14.33845 -87.17918 26792 ft 416 kts 327°
2026-05-05 11:51 14.35948 -87.20063 24948 ft 439 kts 306°
2026-05-05 11:51 14.37200 -87.22993 23140 ft 459 kts 284°
2026-05-05 11:51 14.37379 -87.26314 21172 ft 473 kts 263°
2026-05-05 11:52 14.36442 -87.29573 19347 ft 479 kts 245°
2026-05-05 11:52 14.35083 -87.32722 17602 ft 482 kts 252°
2026-05-05 11:52 14.34513 -87.36054 16431 ft 465 kts 269°
2026-05-05 11:52 14.34866 -87.39303 15362 ft 449 kts 286°
2026-05-05 11:53 14.35605 -87.41308 14734 ft 438 kts 298°
2026-05-05 11:53 14.37328 -87.43816 13829 ft 423 kts 315°
2026-05-05 11:53 14.39598 -87.45621 13255 ft 400 kts 332°
2026-05-05 11:53 14.42104 -87.46708 13009 ft 385 kts 346°
2026-05-05 11:54 14.44695 -87.47113 12759 ft 371 kts
2026-05-05 11:54 14.47198 -87.46823 12526 ft 356 kts 18°
2026-05-05 11:54 14.49407 -87.45832 12433 ft 338 kts 34°
2026-05-05 11:54 14.51097 -87.44363 12351 ft 323 kts 50°
2026-05-05 11:55 14.52337 -87.42411 12288 ft 308 kts 67°
2026-05-05 11:55 14.52945 -87.40332 12230 ft 304 kts 82°
2026-05-05 11:55 14.52993 -87.38196 12164 ft 297 kts 97°
2026-05-05 11:55 14.52508 -87.36158 12101 ft 288 kts 111°
2026-05-05 11:56 14.51571 -87.34375 12032 ft 281 kts 125°
2026-05-05 11:56 14.50250 -87.32908 11974 ft 286 kts 139°
2026-05-05 11:56 14.48567 -87.31806 11933 ft 289 kts 154°
2026-05-05 11:56 14.46647 -87.31175 11871 ft 292 kts 168°
2026-05-05 11:57 14.44610 -87.30861 11820 ft 292 kts 169°
2026-05-05 11:57 14.42623 -87.30560 11688 ft 293 kts 169°
2026-05-05 11:57 14.40610 -87.30254 11466 ft 292 kts 169°
2026-05-05 11:57 14.38604 -87.29951 11222 ft 291 kts 169°
2026-05-05 11:58 14.36579 -87.29644 10972 ft 290 kts 169°
2026-05-05 11:58 14.34626 -87.29346 10729 ft 286 kts 169°
2026-05-05 11:58 14.32675 -87.29051 10503 ft 281 kts 169°
2026-05-05 11:58 14.30750 -87.28760 10265 ft 278 kts 169°
2026-05-05 11:59 14.28852 -87.28472 10033 ft 274 kts 169°
2026-05-05 11:59 14.26983 -87.28186 9784 ft 269 kts 169°
2026-05-05 11:59 14.25147 -87.27923 9554 ft 264 kts 174°
2026-05-05 11:59 14.23330 -87.28028 9326 ft 260 kts 191°
2026-05-05 12:00 14.21625 -87.28631 9038 ft 261 kts 206°
2026-05-05 12:00 14.20133 -87.29689 8666 ft 262 kts 222°
2026-05-05 12:00 14.18800 -87.30964 8332 ft 262 kts 223°
2026-05-05 12:00 14.17460 -87.32241 7968 ft 263 kts 223°
2026-05-05 12:01 14.15980 -87.33294 7609 ft 254 kts 202°
2026-05-05 12:01 14.14312 -87.33732 7284 ft 244 kts 182°
2026-05-05 12:01 14.12674 -87.33589 6976 ft 231 kts 163°
2026-05-05 12:01 14.11236 -87.32993 6689 ft 217 kts 154°
2026-05-05 12:02 14.09880 -87.32354 6265 ft 211 kts 154°
2026-05-05 12:02 14.08665 -87.31582 5920 ft 198 kts 139°
2026-05-05 12:02 14.07773 -87.30579 5654 ft 182 kts 124°
2026-05-05 12:02 14.07111 -87.29534 5373 ft 168 kts 122°
2026-05-05 12:03 14.06491 -87.28562 5118 ft 158 kts 122°
2026-05-05 12:03 14.05898 -87.27634 4879 ft 153 kts 123°
2026-05-05 12:03 14.05315 -87.26723 4639 ft 151 kts 123°
2026-05-05 12:03 14.04737 -87.25819 4382 ft 151 kts 123°
2026-05-05 12:04 14.04162 -87.24914 4132 ft 151 kts 122°
2026-05-05 12:04 14.03843 -87.23904 3909 ft 150 kts 89°
2026-05-05 12:04 14.04107 -87.22883 3692 ft 149 kts 57°
2026-05-05 12:04 14.04863 -87.22185 3448 ft 148 kts 22°
2026-05-05 12:05 14.05799 -87.21829 3291 ft 139 kts 19°
2026-05-05 12:05 14.06533 -87.21562 3273 ft 72 kts 18°
2026-05-05 12:05 14.06792 -87.21471 3267 ft 23 kts 19°
2026-05-05 12:05 14.06883 -87.21513 3265 ft 17 kts 261°
2026-05-05 12:06 14.06788 -87.21561 3269 ft 15 kts 198°
2026-05-05 12:06 14.06696 -87.21595 3271 ft 13 kts 198°
2026-05-05 12:06 14.06622 -87.21620 3273 ft 9 kts 198°
2026-05-05 12:06 14.06572 -87.21638 3274 ft 6 kts 199°
2026-05-05 12:07 14.06537 -87.21650 3273 ft 7 kts 199°
2026-05-05 12:07 14.06460 -87.21676 3274 ft 15 kts 199°
2026-05-05 12:07 14.06362 -87.21712 3278 ft 14 kts 199°
2026-05-05 12:07 14.06280 -87.21740 3281 ft 11 kts 198°
2026-05-05 12:08 14.06214 -87.21763 3265 ft 8 kts 198°
2026-05-05 12:08 14.06170 -87.21778 3266 ft 6 kts 198°
2026-05-05 12:08 14.06109 -87.21800 3269 ft 12 kts 200°
2026-05-05 12:08 14.06032 -87.21827 3272 ft 9 kts 198°
2026-05-05 12:09 14.05994 -87.21840 3278 ft 2 kts 198°
2026-05-05 12:09 14.05980 -87.21845 3278 ft 3 kts 199°
2026-05-05 12:09 14.05972 -87.21849 3279 ft 0 kts 216°
2026-05-05 12:09 14.05970 -87.21869 3279 ft 8 kts 279°
2026-05-05 12:10 14.05979 -87.21895 3277 ft 0 kts 289°